Ionia, MI

1:43 AM EST on November 18, 2019 (GMT -0500)
Ionia

Weather History for KY70 - September, 2019

Change the Weather History Date:

Friday, September 6, 2019

  Actual Average (WUND) Record (WUND)
Temperature  
Mean Temperature 62 °F -  
Max Temperature 67 °F - - (-1)
Min Temperature 56 °F - - (-1)
Degree Days  
Heating Degree Days 4    
Growing Degree Days 12 (Base 50)    
Moisture  
Dew Point 59 °F    
Average Humidity 89    
Maximum Humidity 94    
Minimum Humidity 76    
Precipitation  
Precipitation 0.00 in - - ()
Sea Level Pressure  
Sea Level Pressure 29.92 in    
Wind  
Wind Speed 3 mph ()    
Max Wind Speed 10 mph    
Max Gust Speed 16 mph    
Visibility 9.1 miles    
Events Rain    
Averages and records for this station are not official NWS values.
T = Trace of Precipitation, MM = Missing Value Source: Averaged Metar Reports

Daily Weather History Graph

Daily Weather History Graph

Search for Another Location

Airport or City:

Astronomy

Sep. 06, 2019 Rise Set
Actual Time 7:09 AM EDT 8:06 PM EDT
Civil Twilight 6:41 AM EDT 8:35 PM EDT
Nautical Twilight 6:06 AM EDT 9:09 PM EDT
Astronomical Twilight 5:30 AM EDT 9:45 PM EDT
Moon 3:29 PM EDT (9/6) 12:12 AM EDT (9/6)
Length of Visible Light 13h 54m
Length of Day
12h 56m
First Quarter, 55% of the Moon is Illuminated
Sep 6
First Quarter
Sep 14
Full
Sep 21
Last Quarter
Sep 28
New
Oct 5
First Quarter

Hourly Weather History & Observations

Time (EDT) Temp. Dew Point Humidity Pressure Visibility Wind Dir Wind Speed Gust Speed Precip Events Conditions
12:15 AM 60.3 °F 56.8 °F 88% 30.03 in 10.0 mi West 5.8 mph - N/A   Clear
12:35 AM 60.3 °F 56.8 °F 88% 30.01 in 10.0 mi Calm Calm - N/A   Scattered Clouds
12:36 AM 60.1 °F 56.7 °F 88% 30.01 in 10.0 mi Calm Calm - N/A   Scattered Clouds
12:55 AM 59.0 °F 56.5 °F 91% 30.01 in 10.0 mi West 4.6 mph - N/A   Scattered Clouds
1:19 AM 59.5 °F 57.2 °F 92% 30.00 in 10.0 mi Calm Calm - N/A   Scattered Clouds
1:36 AM 56.7 °F 54.7 °F 93% 29.99 in 10.0 mi Calm Calm - N/A   Scattered Clouds
1:55 AM 58.3 °F 56.3 °F 93% 30.00 in 10.0 mi Calm Calm - N/A   Clear
1:56 AM 58.3 °F 56.3 °F 93% 30.00 in 10.0 mi Calm Calm - N/A   Clear
2:15 AM 58.1 °F 56.3 °F 94% 30.00 in 10.0 mi Calm Calm - N/A   Mostly Cloudy
2:35 AM 56.5 °F 54.7 °F 94% 30.01 in 10.0 mi Calm Calm - N/A   Overcast
2:40 AM 56.5 °F 54.9 °F 94% 30.01 in 10.0 mi Calm Calm - N/A   Overcast
2:58 AM 56.7 °F 55.0 °F 94% 30.00 in 10.0 mi Calm Calm - N/A   Overcast
3:16 AM 57.0 °F 55.4 °F 94% 29.99 in 10.0 mi Calm Calm - N/A   Overcast
3:35 AM 57.6 °F 55.9 °F 94% 29.99 in 10.0 mi Calm Calm - N/A   Mostly Cloudy
3:55 AM 57.2 °F 55.6 °F 94% 29.98 in 10.0 mi Calm Calm - N/A   Overcast
3:56 AM 57.2 °F 55.4 °F 94% 29.98 in 10.0 mi Calm Calm - N/A   Overcast
4:18 AM 57.4 °F 55.8 °F 94% 29.97 in 10.0 mi SE 3.5 mph - N/A   Overcast
4:37 AM 57.2 °F 55.6 °F 94% 29.97 in 7.0 mi Calm Calm - N/A   Overcast
4:55 AM 58.1 °F 56.5 °F 94% 29.96 in 10.0 mi Calm Calm - N/A   Overcast
5:15 AM 57.7 °F 55.9 °F 94% 29.95 in 10.0 mi SSE 4.6 mph - N/A   Mostly Cloudy
5:35 AM 57.2 °F 55.4 °F 94% 29.94 in 10.0 mi SSE 4.6 mph - N/A   Scattered Clouds
5:58 AM 57.6 °F 55.8 °F 94% 29.93 in 10.0 mi SSE 5.8 mph - N/A   Mostly Cloudy
6:16 AM 57.6 °F 55.6 °F 93% 29.92 in 10.0 mi SSE 6.9 mph - N/A   Overcast
6:35 AM 58.1 °F 55.8 °F 92% 29.91 in 10.0 mi SSE 9.2 mph - N/A   Overcast
6:55 AM 58.6 °F 55.8 °F 90% 29.91 in 10.0 mi South 9.2 mph - N/A   Overcast
7:19 AM 59.2 °F 55.9 °F 89% 29.92 in 10.0 mi South 5.8 mph - N/A   Overcast
7:37 AM 59.5 °F 56.3 °F 89% 29.91 in 10.0 mi SSE 8.1 mph - N/A Rain Rain
7:55 AM 59.4 °F 56.3 °F 90% 29.90 in 10.0 mi SSE 5.8 mph - N/A   Overcast
7:56 AM 59.4 °F 56.3 °F 90% 29.90 in 10.0 mi SSE 5.8 mph - N/A   Overcast
8:15 AM 59.9 °F 56.5 °F 88% 29.90 in 10.0 mi SSE 6.9 mph - N/A   Overcast
8:16 AM 59.9 °F 56.5 °F 88% 29.90 in 10.0 mi SSE 6.9 mph - N/A   Overcast
8:35 AM 60.1 °F 56.7 °F 88% 29.90 in 10.0 mi SSE 5.8 mph - N/A   Overcast
8:40 AM 60.3 °F 56.7 °F 88% 29.90 in 10.0 mi SSE 5.8 mph - N/A   Overcast
8:58 AM 60.6 °F 57.4 °F 89% 29.89 in 10.0 mi SSE 8.1 mph - N/A Rain Rain
9:16 AM 61.0 °F 57.6 °F 88% 29.88 in 10.0 mi SSE 9.2 mph - N/A   Overcast
9:35 AM 61.9 °F 57.6 °F 86% 29.89 in 10.0 mi SSE 6.9 mph - N/A   Overcast
9:36 AM 61.9 °F 57.7 °F 86% 29.89 in 10.0 mi SSE 5.8 mph - N/A   Overcast
9:55 AM 62.6 °F 57.2 °F 82% 29.88 in 10.0 mi South 6.9 mph - N/A   Overcast
9:56 AM 62.6 °F 57.2 °F 82% 29.88 in 10.0 mi South 8.1 mph - N/A   Overcast
10:19 AM 63.5 °F 57.2 °F 80% 29.88 in 10.0 mi South 8.1 mph - N/A   Overcast
10:37 AM 63.7 °F 57.0 °F 79% 29.87 in 10.0 mi South 10.4 mph - N/A   Overcast
10:55 AM 64.2 °F 57.2 °F 78% 29.88 in 10.0 mi SSW 5.8 mph - N/A   Overcast
10:56 AM 64.2 °F 57.0 °F 77% 29.88 in 10.0 mi SSW 4.6 mph - N/A   Overcast
11:15 AM 64.4 °F 57.4 °F 78% 29.89 in 10.0 mi SW 6.9 mph - N/A   Overcast
11:35 AM 63.5 °F 58.5 °F 84% 29.90 in 5.0 mi NNE 5.8 mph - N/A   Light Drizzle
11:40 AM 63.1 °F 59.0 °F 86% 29.90 in 10.0 mi NE 4.6 mph - N/A   Overcast
11:58 AM 61.9 °F 59.4 °F 91% 29.89 in 4.0 mi ENE 5.8 mph - N/A   Overcast
12:16 PM 62.6 °F 60.8 °F 94% 29.89 in 5.0 mi North - - N/A   Overcast
12:35 PM 63.1 °F 60.4 °F 91% 29.88 in 10.0 mi ESE 8.1 mph - N/A   Overcast
12:36 PM 63.1 °F 60.4 °F 91% 29.88 in 10.0 mi East 6.9 mph - N/A   Overcast
12:55 PM 64.4 °F 60.6 °F 88% 29.86 in 10.0 mi ESE 8.1 mph - N/A   Overcast
1:00 PM 64.6 °F 61.0 °F 88% 29.86 in 10.0 mi SE 10.4 mph - N/A   Overcast
1:18 PM 66.4 °F 59.7 °F 79% 29.85 in 10.0 mi SSE 10.4 mph - N/A   Overcast
1:36 PM 67.1 °F 59.4 °F 76% 29.85 in 10.0 mi South 8.1 mph - N/A   Overcast
1:55 PM 66.4 °F 59.7 °F 79% 29.87 in 10.0 mi South 3.5 mph - N/A   Overcast
2:15 PM 66.6 °F 59.5 °F 78% 29.87 in 10.0 mi North - - N/A   Overcast
2:16 PM 66.6 °F 59.5 °F 78% 29.87 in 10.0 mi Calm Calm - N/A   Overcast
2:39 PM 65.8 °F 60.8 °F 84% 29.87 in 4.0 mi Calm Calm - N/A   Haze
2:57 PM 65.3 °F 61.7 °F 88% 29.87 in 5.0 mi Calm Calm - N/A   Overcast
3:15 PM 65.7 °F 61.7 °F 87% 29.87 in 2.0 mi Calm Calm - N/A Rain Rain
3:16 PM 65.7 °F 61.7 °F 87% 29.87 in 2.0 mi Calm Calm - N/A Rain Rain
3:35 PM 64.8 °F 62.4 °F 92% 29.87 in 1.8 mi Calm Calm - N/A   Drizzle
3:55 PM 64.6 °F 62.6 °F 93% 29.87 in 1.5 mi North - - N/A Rain Light Rain
4:17 PM 64.8 °F 62.8 °F 93% 29.87 in 2.5 mi Calm Calm - N/A   Light Drizzle
4:36 PM 65.1 °F 63.0 °F 93% 29.87 in 5.0 mi Calm Calm - N/A   Overcast
4:55 PM 65.3 °F 62.8 °F 92% 29.88 in 10.0 mi Calm Calm - N/A   Overcast
4:56 PM 65.3 °F 62.8 °F 92% 29.88 in 7.0 mi North 3.5 mph - N/A   Overcast
5:15 PM 65.5 °F 62.8 °F 91% 29.88 in 10.0 mi Calm Calm - N/A   Overcast
5:39 PM 66.2 °F 62.8 °F 89% 29.89 in 10.0 mi Calm Calm - N/A   Overcast
5:57 PM 66.2 °F 63.0 °F 89% 29.89 in 10.0 mi North - - N/A   Overcast
6:15 PM 66.2 °F 62.6 °F 88% 29.89 in 10.0 mi NNW 3.5 mph - N/A   Overcast
6:35 PM 66.4 °F 62.6 °F 88% 29.90 in 10.0 mi NW 5.8 mph - N/A   Overcast
6:55 PM 67.1 °F 62.6 °F 85% 29.90 in 10.0 mi NW 3.5 mph - N/A   Scattered Clouds
7:18 PM 66.2 °F 62.1 °F 86% 29.90 in 10.0 mi Calm Calm - N/A   Mostly Cloudy
7:35 PM 66.2 °F 62.4 °F 88% 29.91 in 10.0 mi Calm Calm - N/A   Mostly Cloudy
7:55 PM 66.4 °F 62.6 °F 88% 29.92 in 10.0 mi Calm Calm - N/A   Overcast
7:56 PM 66.4 °F 62.6 °F 88% 29.92 in 10.0 mi Calm Calm - N/A   Overcast
8:15 PM 66.6 °F 62.6 °F 87% 29.92 in 10.0 mi WNW 4.6 mph - N/A   Overcast
8:39 PM 66.2 °F 62.6 °F 88% 29.92 in 10.0 mi WNW 4.6 mph - N/A   Overcast
8:57 PM 66.4 °F 63.0 °F 89% 29.93 in 10.0 mi WNW 5.8 mph - N/A   Overcast
9:15 PM 65.8 °F 62.8 °F 90% 29.94 in 10.0 mi Calm Calm - N/A   Overcast
9:35 PM 65.7 °F 62.6 °F 90% 29.95 in 10.0 mi North 4.6 mph - N/A   Overcast
9:55 PM 65.5 °F 62.6 °F 90% 29.95 in 10.0 mi North 4.6 mph - N/A   Overcast
10:18 PM 65.5 °F 61.9 °F 88% 29.95 in 10.0 mi North 3.5 mph - N/A   Overcast
10:36 PM 65.5 °F 62.1 °F 89% 29.96 in 10.0 mi NNW 3.5 mph - N/A   Overcast
10:56 PM 65.3 °F 61.7 °F 88% 29.97 in 10.0 mi North 3.5 mph - N/A   Overcast
11:15 PM 65.1 °F 61.3 °F 88% 29.97 in 10.0 mi NNW 4.6 mph - N/A Rain Rain
11:16 PM 65.1 °F 61.3 °F 88% 29.97 in 10.0 mi NNW 5.8 mph - N/A Rain Rain
11:39 PM 63.3 °F 59.7 °F 88% 29.98 in 10.0 mi North 9.2 mph 16.1 mph N/A Rain Light Rain
11:57 PM 62.8 °F 59.5 °F 89% 29.97 in 10.0 mi North 5.8 mph - N/A   Overcast